Location: Saint-Usage
(47.1052°N, 5.2587°E)
Time: 03:16:05
(UTC+02:00)

Envisat - Pass Details

Date: 30 September 2021
Orbit: 764 x 766 km, 98.2° (Epoch: 17 October)

Event Time Altitude Azimuth Distance (km) Brightness Sun altitude
Rises 06:10:24 0° 21° (NNE) 3,242 6.7 -15.4°
Reaches altitude 10° 06:12:55 10° 30° (NNE) 2,310 6.1 -15.0°
Maximum altitude 06:17:33 35° 96° (E) 1,225 4.7 -14.2°
Drops below altitude 10° 06:22:10 10° 162° (SSE) 2,294 5.6 -13.4°
Sets 06:24:38 0° 171° (S) 3,215 6.2 -13.0°
